Visibility
15.0 15.0 15.0 15.0 15.0 15.0 15.0 15.0 15.0 15.0 15.0 15.0 15.0 15.0 4.5 11.6 15.0 15.0 15.0 15.0 9.8 11.9 15.0 15.0 15.0 15.0 15.0 15.0 15.0 15.0 15.0 9.2 15.0 15.0 15.0 13.5 0.1 0.1 0.2 3.1 12.7 11.3 15.0
15.0 15.0 15.0 15.0 15.0 15.0 15.0 15.0 15.0 15.0 15.0 15.0 15.0 15.0 15.0 15.0 15.0 15.0 15.0 15.0 15.0 15.0 15.0 15.0 15.0 15.0 15.0 15.0 15.0 14.4 15.0 15.0 15.0 15.0 3.9 1.6 0.1 3.8 0.1 0.1 11.3 15.0 15.0
15.0 15.0 15.0 15.0 15.0 15.0 15.0 15.0 15.0 15.0 15.0 15.0 15.0 15.0 15.0 15.0 15.0 15.0 15.0 15.0 15.0 15.0 15.0 15.0 15.0 15.0 15.0 15.0 15.0 15.0 15.0 15.0 15.0 15.0 15.0 15.0 5.2 0.1 0.1 0.2 11.4 15.0 15.0
15.0 15.0 15.0 15.0 15.0 15.0 15.0 15.0 15.0 15.0 15.0 15.0 15.0 15.0 15.0 15.0 15.0 15.0 15.0 15.0 15.0 15.0 15.0 15.0 15.0 15.0 15.0 15.0 15.0 15.0 15.0 15.0 15.0 15.0 15.0 15.0 9.0 0.2 0.2 0.1 0.0 15.0 15.0
15.0 15.0 15.0 15.0 15.0 15.0 15.0 15.0 15.0 15.0 15.0 15.0 15.0 15.0 15.0 15.0 15.0 15.0 15.0 15.0 15.0 15.0 15.0 15.0 15.0 15.0 15.0 15.0 15.0 15.0 15.0 15.0 15.0 15.0 15.0 4.9 11.4 0.0 0.0 0.1 0.1 1.3 6.9
15.0 15.0 15.0 15.0 15.0 15.0 15.0 15.0 15.0 15.0 15.0 15.0 15.0 15.0 15.0 15.0 3.0 15.0 15.0 15.0 15.0 15.0 15.0 15.0 15.0 15.0 15.0 15.0 15.0 15.0 15.0 15.0 15.0 15.0 15.0 15.0 15.0 0.1 0.1 0.0 0.1 0.1 0.0
15.0 15.0 15.0 15.0 15.0 15.0 15.0 15.0 15.0 15.0 15.0 15.0 15.0 15.0 15.0 15.0 13.7 15.0 11.4 15.0 15.0 15.0 15.0 15.0 7.8 15.0 11.5 15.0 15.0 15.0 15.0 15.0 15.0 12.0 15.0 15.0 15.0 15.0 0.3 0.1 1.4 4.5 4.5
15.0 15.0 15.0 15.0 15.0 15.0 15.0 15.0 15.0 15.0 15.0 15.0 15.0 15.0 15.0 7.9 0.2 0.4 6.3 15.0 15.0 15.0 15.0 15.0 12.5 15.0 15.0 15.0 5.7 9.1 7.8 15.0 15.0 15.0 15.0 15.0 15.0 15.0 8.8 9.0 7.2 15.0 15.0
15.0 15.0 15.0 15.0 15.0 8.5 15.0 15.0 12.8 15.0 15.0 3.6 15.0 15.0 14.5 4.9 3.7 2.7 0.1 6.3 2.3 15.0 10.5 15.0 15.0 15.0 5.7 8.1 15.0 15.0 12.9 15.0 1.5 13.4 15.0 0.5 0.6 14.8 6.5 15.0 0.1 0.1 0.1
15.0 15.0 15.0 15.0 15.0 15.0 15.0 15.0 15.0 9.1 15.0 15.0 15.0 15.0 15.0 15.0 11.2 0.0 0.0 0.1 0.2 6.3 15.0 15.0 0.2 0.4 13.7 13.9 4.6 15.0 15.0 15.0 9.4 0.1 0.0 0.0 0.0 4.0 14.4 15.0 0.8 0.0 0.1
15.0 15.0 15.0 15.0 15.0 15.0 9.0 10.4 15.0 15.0 15.0 15.0 15.0 15.0 15.0 15.0 15.0 0.0 0.1 0.1 0.0 0.0 9.0 15.0 15.0 0.0 0.0 0.1 0.0 15.0 15.0 3.7 3.0 4.5 15.0 12.4 0.3 0.1 0.1 12.8 15.0 3.1 0.3
15.0 15.0 15.0 15.0 15.0 15.0 15.0 15.0 15.0 15.0 15.0 15.0 15.0 15.0 15.0 15.0 9.4 0.1 0.2 0.0 6.2 0.4 0.0 0.1 3.9 0.0 0.0 0.0 0.0 0.0 0.0 0.0 5.5 15.0 8.9 13.3 1.9 0.1 0.0 0.3 5.0 4.0 9.1
15.0 15.0 15.0 15.0 15.0 15.0 15.0 15.0 15.0 15.0 15.0 15.0 15.0 15.0 15.0 15.0 15.0 15.0 0.3 15.0 15.0 1.7 15.0 0.1 0.1 0.0 0.0 0.0 0.0 0.0 0.0 0.0 0.0 0.1 0.1 10.6 15.0 4.4 5.0 0.1 3.2 4.5 14.1
12.6 6.5 15.0 4.9 15.0 15.0 15.0 15.0 15.0 15.0 15.0 15.0 15.0 15.0 12.7 15.0 15.0 15.0 15.0 7.9 12.7 12.4 15.0 13.0 15.0 0.5 0.0 0.0 0.0 0.0 0.0 0.0 0.0 0.0 0.2 15.0 3.4 0.1 0.1 0.1 0.1 0.0 0.0
1.7 15.0 15.0 15.0 15.0 15.0 8.6 8.7 15.0 14.2 8.6 15.0 15.0 7.4 0.1 0.4 15.0 0.2 0.0 0.0 0.1 0.0 0.0 0.2 12.1 4.7 0.1 0.1 0.0 0.1 0.1 0.0 0.0 0.0 0.2 0.2 0.0 0.0 0.0 0.0 0.1 0.0 0.0
3.8 1.4 1.9 15.0 15.0 15.0 10.5 1.3 0.1 0.0 0.1 0.3 0.1 0.1 0.2 0.1 0.1 0.0 0.0 0.0 0.0 0.1 0.0 0.0 0.1 15.0 0.7 0.3 0.1 0.1 0.1 0.0 0.0 0.1 0.1 0.1 0.0 0.0 0.0 0.0 0.1 0.0 0.0
1.6 0.7 3.8 1.6 15.0 15.0 15.0 15.0 15.0 14.7 0.1 0.1 0.1 0.1 0.1 0.0 0.0 0.0 0.0 0.0 0.0 0.1 0.0 0.1 0.1 0.1 0.1 0.1 0.1 0.1 0.1 0.1 7.1 0.2 0.2 0.5 0.1 0.1 0.0 0.0 0.0 0.1 0.0
2.7 0.2 4.0 15.0 15.0 15.0 15.0 15.0 15.0 15.0 15.0 15.0 0.1 0.0 0.0 0.0 0.1 0.0 0.0 0.5 8.0 4.4 2.3 0.1 0.1 0.2 0.2 0.1 0.1 0.1 0.1 0.1 0.1 0.1 0.0 0.1 0.1 0.1 0.0 0.0 0.0 0.0 0.0
9.4 15.0 15.0 15.0 15.0 15.0 15.0 15.0 15.0 15.0 15.0 15.0 15.0 7.6 0.4 0.0 0.0 0.0 0.0 14.2 4.9 0.2 0.5 0.1 0.1 0.1 0.1 0.2 0.4 0.7 1.2 0.2 0.2 0.3 0.2 0.1 0.1 0.1 0.1 0.1 0.1 0.1 0.2
15.0 15.0 15.0 15.0 15.0 15.0 15.0 15.0 15.0 15.0 15.0 15.0 15.0 15.0 15.0 11.5 15.0 15.0 15.0 15.0 15.0 15.0 15.0 11.9 2.7 11.7 0.5 0.2 0.3 0.2 0.1 0.1 0.1 0.2 0.1 0.2 0.7 11.7 0.1 0.1 0.1 0.1 0.4
15.0 15.0 15.0 15.0 15.0 15.0 15.0 15.0 15.0 15.0 15.0 15.0 15.0 15.0 3.5 15.0 15.0 15.0 15.0 15.0 15.0 15.0 15.0 15.0 15.0 15.0 15.0 15.0 15.0 15.0 0.4 0.2 0.4 0.4 0.3 3.3 15.0 0.2 11.7 15.0 12.0 15.0 15.0
15.0 15.0 15.0 15.0 15.0 15.0 15.0 15.0 15.0 15.0 15.0 15.0 15.0 15.0 0.1 0.1 15.0 15.0 15.0 15.0 15.0 15.0 15.0 15.0 15.0 15.0 15.0 15.0 15.0 15.0 15.0 15.0 15.0 15.0 15.0 15.0 15.0 15.0 15.0 15.0 15.0 15.0 15.0
15.0 15.0 15.0 15.0 15.0 15.0 15.0 15.0 15.0 15.0 15.0 15.0 15.0 15.0 14.2 15.0 15.0 15.0 15.0 15.0 15.0 15.0 15.0 15.0 15.0 15.0 15.0 15.0 15.0 15.0 15.0 15.0 15.0 15.0 15.0 15.0 15.0 15.0 15.0 15.0 15.0 15.0 15.0
15.0 15.0 15.0 15.0 15.0 15.0 15.0 15.0 15.0 15.0 15.0 15.0 15.0 15.0 15.0 15.0 15.0 15.0 15.0 15.0 15.0 15.0 15.0 15.0 15.0 15.0 15.0 15.0 15.0 15.0 15.0 15.0 15.0 15.0 15.0 15.0 15.0 11.8 15.0 15.0 15.0 15.0 15.0
15.0 15.0 15.0 15.0 15.0 15.0 15.0 15.0 15.0 15.0 15.0 15.0 15.0 15.0 15.0 15.0 15.0 15.0 15.0 15.0 15.0 15.0 15.0 15.0 15.0 15.0 15.0 15.0 15.0 15.0 0.2 0.0 8.0 13.4 15.0 15.0 15.0 15.0 15.0 15.0 15.0 15.0 15.0
15.0 15.0 15.0 15.0 15.0 15.0 15.0 15.0 15.0 15.0 15.0 15.0 15.0 15.0 15.0 15.0 15.0 15.0 15.0 15.0 15.0 15.0 15.0 15.0 15.0 15.0 15.0 15.0 13.0 9.4 0.0 0.0 0.0 0.0 10.1 15.0 15.0 15.0 15.0 15.0 15.0 15.0 15.0